Belmar-Farmingdale, NJ

10:13 PM EST on December 15, 2019 (GMT -0500)
Allaire

Weather History for KBLM - October, 2019

Change the Weather History Date:

Thursday, October 10, 2019

  Actual Average Record
Temperature  
Mean Temperature 62 °F -  
Max Temperature 71 °F 63 °F 82 °F (1997)
Min Temperature 52 °F 48 °F 33 °F (2000)
Degree Days  
Heating Degree Days 4    
Growing Degree Days 12 (Base 50)    
Moisture  
Dew Point 43 °F    
Average Humidity 56    
Maximum Humidity 86    
Minimum Humidity 34    
Precipitation  
Precipitation 0.00 in - - ()
Sea Level Pressure  
Sea Level Pressure 30.19 in    
Wind  
Wind Speed 11 mph ()    
Max Wind Speed 20 mph    
Max Gust Speed 29 mph    
Visibility 10.0 miles    
Events Rain    
Averages and records for this station are not official NWS values.
T = Trace of Precipitation, MM = Missing Value Source: Averaged Metar Reports

Daily Weather History Graph

Daily Weather History Graph

Search for Another Location

Airport or City:

Astronomy

Oct. 10, 2019 Rise Set
Actual Time 7:01 AM EDT 6:24 PM EDT
Civil Twilight 6:34 AM EDT 6:51 PM EDT
Nautical Twilight 6:02 AM EDT 7:23 PM EDT
Astronomical Twilight 5:31 AM EDT 7:54 PM EDT
Moon 5:25 PM EDT (10/10) 3:42 AM EDT (10/10)
Length of Visible Light 12h 17m
Length of Day
11h 23m
Waxing Gibbous, 91% of the Moon is Illuminated
Oct 10
Waxing Gibbous
Oct 13
Full
Oct 21
Last Quarter
Oct 27
New
Nov 4
First Quarter

Hourly Weather History & Observations

Time (EDT) Temp. Dew Point Humidity Pressure Visibility Wind Dir Wind Speed Gust Speed Precip Events Conditions
12:56 AM 53.1 °F 48.9 °F 86% 30.24 in 10.0 mi North 10.4 mph - 0.00 in Rain Light Rain
1:56 AM 53.1 °F 48.9 °F 86% 30.24 in 10.0 mi North 10.4 mph - 0.00 in   Overcast
2:12 AM 53.6 °F 48.2 °F 82% 30.23 in 10.0 mi North 12.7 mph - N/A   Overcast
2:56 AM 53.1 °F 46.9 °F 80% 30.22 in 10.0 mi North 12.7 mph - N/A   Overcast
3:56 AM 53.1 °F 46.0 °F 77% 30.22 in 10.0 mi North 11.5 mph - N/A   Partly Cloudy
4:56 AM 53.1 °F 45.0 °F 74% 30.21 in 10.0 mi North 10.4 mph - N/A   Overcast
5:56 AM 53.1 °F 46.9 °F 80% 30.21 in 10.0 mi NNW 9.2 mph - N/A   Overcast
6:56 AM 52.0 °F 46.9 °F 83% 30.21 in 10.0 mi NNW 8.1 mph - N/A   Mostly Cloudy
7:56 AM 55.0 °F 48.0 °F 77% 30.21 in 10.0 mi NNW 6.9 mph - N/A   Mostly Cloudy
8:56 AM 59.0 °F 46.9 °F 64% 30.21 in 10.0 mi North 16.1 mph 24.2 mph N/A   Mostly Cloudy
9:56 AM 62.1 °F 46.0 °F 56% 30.20 in 10.0 mi NNW 13.8 mph - N/A   Clear
10:56 AM 64.0 °F 44.1 °F 48% 30.20 in 10.0 mi NNW 17.3 mph - N/A   Overcast
11:56 AM 66.0 °F 44.1 °F 45% 30.19 in 10.0 mi North 19.6 mph 25.3 mph N/A   Scattered Clouds
12:56 PM 66.0 °F 44.1 °F 45% 30.18 in 10.0 mi North 19.6 mph 27.6 mph N/A   Scattered Clouds
1:56 PM 66.9 °F 45.0 °F 45% 30.15 in 10.0 mi North 17.3 mph 24.2 mph N/A   Overcast
2:56 PM 68.0 °F 42.1 °F 39% 30.15 in 10.0 mi North 16.1 mph 28.8 mph N/A   Clear
3:56 PM 71.1 °F 43.0 °F 36% 30.15 in 10.0 mi North 11.5 mph - N/A   Clear
4:56 PM 69.1 °F 42.1 °F 38% 30.16 in 10.0 mi NNE 11.5 mph - N/A   Overcast
5:56 PM 66.9 °F 46.0 °F 47% 30.17 in 10.0 mi NE 12.7 mph 18.4 mph N/A   Overcast
6:56 PM 64.9 °F 37.0 °F 36% 30.16 in 10.0 mi NE 18.4 mph 25.3 mph 0.00 in   Overcast
7:56 PM 63.0 °F 35.1 °F 35% 30.15 in 10.0 mi North 19.6 mph 24.2 mph N/A   Overcast
8:56 PM 61.0 °F 35.1 °F 38% 30.14 in 10.0 mi North 10.4 mph 21.9 mph N/A   Clear
9:56 PM 61.0 °F 32.0 °F 34% 30.15 in 10.0 mi North 13.8 mph 20.7 mph N/A   Clear
10:56 PM 60.1 °F 33.1 °F 36% 30.16 in 10.0 mi NNE 16.1 mph 24.2 mph N/A   Overcast
11:56 PM 59.0 °F 35.1 °F 41% 30.16 in 10.0 mi North 15.0 mph 23.0 mph N/A   Mostly Cloudy